TimeCDT,TemperatureF,Dew PointF,Humidity,Sea Level PressureIn,VisibilityMPH,Wind Direction,Wind SpeedMPH,Gust SpeedMPH,PrecipitationIn,Events,Conditions,WindDirDegrees,DateUTC
12:52 AM,37.9,30.9,76,30.20,10.0,Calm,Calm,-,N/A,,Clear,0,2012-10-08 05:52:00
1:52 AM,34.0,28.9,82,30.20,10.0,South,3.5,-,N/A,,Clear,190,2012-10-08 06:52:00
2:52 AM,36.0,28.9,76,30.21,10.0,WSW,6.9,-,N/A,,Clear,250,2012-10-08 07:52:00
3:52 AM,36.0,30.0,79,30.20,10.0,WSW,5.8,-,N/A,,Clear,240,2012-10-08 08:52:00
4:52 AM,33.1,28.9,85,30.20,10.0,South,3.5,-,N/A,,Clear,170,2012-10-08 09:52:00
5:52 AM,33.1,28.9,85,30.21,10.0,SSE,4.6,-,N/A,,Clear,160,2012-10-08 10:52:00
6:52 AM,32.0,28.9,88,30.21,10.0,South,5.8,-,N/A,,Clear,180,2012-10-08 11:52:00
7:52 AM,33.1,30.0,89,30.23,9.0,SSE,3.5,-,N/A,,Clear,160,2012-10-08 12:52:00
8:52 AM,39.0,34.0,82,30.23,10.0,South,6.9,-,N/A,,Clear,170,2012-10-08 13:52:00
9:52 AM,45.0,35.1,68,30.22,10.0,South,5.8,-,N/A,,Clear,180,2012-10-08 14:52:00
10:52 AM,50.0,34.0,54,30.21,10.0,SSW,10.4,-,N/A,,Clear,210,2012-10-08 15:52:00
11:52 AM,52.0,32.0,47,30.20,10.0,South,11.5,-,N/A,,Clear,190,2012-10-08 16:52:00
12:52 PM,53.1,30.9,43,30.18,10.0,SW,9.2,-,N/A,,Clear,220,2012-10-08 17:52:00
1:52 PM,55.9,34.0,44,30.15,10.0,SSW,9.2,-,N/A,,Clear,210,2012-10-08 18:52:00
2:52 PM,57.0,33.1,40,30.12,10.0,SSW,10.4,-,N/A,,Clear,200,2012-10-08 19:52:00
3:52 PM,57.9,34.0,41,30.09,10.0,South,8.1,-,N/A,,Clear,190,2012-10-08 20:52:00
4:52 PM,57.2,33.8,41,30.06,10.0,South,11.5,-,N/A,,Clear,180,2012-10-08 21:52:00
5:52 PM,57.0,33.1,40,30.06,10.0,South,9.2,-,N/A,,Clear,190,2012-10-08 22:52:00
6:52 PM,51.1,34.0,52,30.06,10.0,South,5.8,-,N/A,,Clear,180,2012-10-08 23:52:00
7:52 PM,48.0,34.0,58,30.06,10.0,SSW,9.2,-,N/A,,Clear,200,2012-10-09 00:52:00
8:52 PM,44.1,35.1,71,30.07,10.0,SSW,5.8,-,N/A,,Clear,200,2012-10-09 01:52:00
9:52 PM,43.0,35.1,74,30.09,10.0,South,5.8,-,N/A,,Clear,190,2012-10-09 02:52:00
10:52 PM,42.1,35.1,76,30.08,10.0,South,5.8,-,N/A,,Clear,180,2012-10-09 03:52:00
11:52 PM,39.9,35.1,83,30.08,10.0,South,5.8,-,N/A,,Clear,170,2012-10-09 04:52:00